CAPE
0 0 0 1 3 2 3 2 1 2 4 2 4 7 5 11 14 5 0 0 0 3 0 2 1 7 2 8 7 1 0 0 0 23 22 54 33 42 53 1 11 0 0 0 0 0 0 0 0 0 0 0 0 0
0 0 0 0 1 2 1 1 1 3 2 2 4 8 9 8 8 7 2 2 2 1 0 1 1 3 1 0 0 0 0 8 0 0 0 16 18 22 45 24 0 0 0 7 0 0 0 0 0 0 0 0 0 0
0 0 0 1 0 1 1 1 1 2 1 2 2 7 9 7 2 1 0 2 1 1 1 3 0 0 0 0 0 0 3 0 1 0 0 0 3 0 3 0 0 0 0 0 0 0 0 0 0 0 0 0 0 0
0 0 0 1 1 1 1 0 0 1 2 3 3 3 5 2 0 0 0 0 0 1 0 5 1 6 0 0 0 0 0 0 0 0 0 0 0 0 0 0 0 0 0 5 0 0 0 0 0 0 0 0 0 0
0 0 0 1 1 1 1 0 0 1 2 4 4 0 0 0 0 2 4 0 0 0 0 0 0 0 13 0 0 0 0 0 2 0 0 0 0 0 0 0 0 0 0 0 0 0 0 0 0 0 0 0 0 0
0 0 0 0 1 1 2 0 1 0 1 2 2 0 0 0 1 3 3 0 2 0 0 2 4 0 0 37 0 0 0 0 0 0 0 0 0 0 0 0 0 0 0 0 0 0 0 0 0 0 0 0 0 0
0 0 0 0 1 1 1 0 1 1 1 0 1 0 0 0 6 5 10 8 3 0 1 2 9 6 0 34 2 0 0 0 0 0 0 0 0 0 0 0 0 0 0 0 0 0 0 0 0 0 0 0 0 0
0 0 0 1 1 1 1 1 1 1 1 0 0 0 0 0 0 5 3 0 8 1 4 2 4 10 2 4 13 4 0 0 0 0 0 0 0 0 0 0 0 0 0 0 0 0 0 0 0 0 0 0 0 0
0 0 0 1 1 1 0 0 1 0 1 0 0 0 1 11 5 1 2 0 0 0 1 1 0 0 4 4 1 1 1 0 1 0 0 0 0 0 0 4 4 5 1 0 0 0 0 0 0 0 0 0 0 0
0 0 0 1 1 2 1 1 1 0 0 0 0 1 3 4 2 0 0 2 1 1 1 0 1 1 1 5 4 4 3 1 0 0 0 0 0 0 5 5 2 5 8 4 2 0 0 0 0 0 0 0 0 0
0 0 0 1 2 1 1 1 1 0 0 3 1 0 3 0 0 1 3 1 3 1 1 1 1 0 4 3 4 3 0 1 0 0 0 0 0 3 0 3 5 16 22 11 9 13 13 9 0 0 0 0 0 0
0 0 0 1 2 1 0 0 1 0 1 0 1 1 2 2 3 3 0 1 0 0 6 0 2 1 1 1 1 10 0 0 0 3 0 0 0 2 3 3 2 3 6 5 7 2 3 6 3 0 0 0 0 0
0 0 0 2 0 0 0 1 0 0 0 1 2 0 1 0 0 0 2 0 1 0 1 4 2 0 1 1 2 2 1 2 1 0 0 1 10 24 4 0 0 1 5 3 4 3 4 8 6 0 0 0 0 0
0 0 1 0 0 0 0 1 0 0 1 1 66 0 1 2 1 9 11 16 31 10 1 3 4 2 1 2 0 1 1 0 0 0 11 10 7 3 18 7 3 2 2 6 5 7 4 7 4 5 1 0 0 0
0 0 0 0 0 0 0 0 0 0 0 72 25 0 1 1 0 0 0 16 9 3 2 2 1 2 2 0 0 0 0 0 0 8 28 3 0 0 0 4 0 0 1 3 3 2 8 2 5 14 3 0 0 0
0 0 0 0 0 0 0 0 0 0 64 47 2 9 3 10 0 0 0 6 0 2 0 1 5 16 19 22 9 3 1 0 1 13 2 0 0 0 0 0 0 0 0 1 3 3 3 10 15 3 0 0 0 0
0 0 0 0 0 0 0 0 0 165 116 64 83 3 4 1 0 0 0 0 0 8 21 14 7 11 39 22 1 0 0 5 28 11 1 0 0 0 0 0 0 0 0 0 1 4 4 2 10 37 15 3 0 0
0 0 0 0 1 0 0 0 224 140 80 18 1 0 0 0 0 0 0 0 0 31 1 2 9 2 5 2 9 28 33 6 10 5 7 0 0 0 0 0 0 0 0 0 0 1 3 2 2 4 3 56 28 11
0 0 0 0 0 0 284 290 247 133 124 19 3 0 0 0 0 0 0 0 0 0 0 5 5 11 10 4 6 14 12 9 2 5 3 0 0 0 0 0 0 0 0 0 0 0 2 3 3 4 4 3 46 50
0 0 0 0 0 149 332 280 218 149 96 3 0 0 0 0 4 0 0 0 0 0 0 9 13 11 3 0 0 6 3 0 0 0 0 0 0 0 0 0 0 0 0 0 10 0 0 3 3 4 5 2 0 4
0 0 0 0 182 137 74 138 122 197 21 14 3 0 0 2 6 3 1 0 0 4 7 10 8 1 0 0 0 0 0 0 0 0 0 0 0 0 0 0 0 0 0 0 6 0 1 2 2 4 2 3 2 3
0 0 118 148 378 202 264 51 171 168 85 20 15 1 0 0 2 0 9 8 11 14 12 10 3 1 0 0 0 0 0 0 0 0 0 0 0 0 0 0 0 0 0 0 2 0 0 0 0 1 2 4 3 3
0 7 517 67 251 34 101 161 175 163 67 19 1 1 5 1 0 4 9 11 22 40 25 17 7 0 0 0 0 0 0 0 0 0 0 0 0 0 0 0 0 0 0 0 5 24 1 0 0 0 0 0 0 0
0 58 4 0 0 11 186 86 103 158 163 89 30 4 10 1 5 25 20 21 24 31 18 3 1 4 1 0 0 0 0 0 0 0 0 0 0 0 0 0 0 0 0 0 2 10 14 14 0 0 0 0 0 0
0 0 0 0 13 108 70 44 23 74 13 101 101 3 25 10 5 10 7 18 29 28 26 12 0 0 0 0 0 0 0 0 0 0 0 0 0 0 0 0 1 1 1 6 7 8 6 3 2 1 0 0 0 0
0 0 15 6 60 106 38 45 32 32 8 12 41 9 2 1 0 4 11 20 20 32 27 22 2 3 0 0 0 0 0 0 0 0 0 0 0 0 1 3 3 4 8 12 14 13 12 10 7 2 0 0 0 0
0 182 222 109 242 201 199 135 45 44 0 0 4 0 0 0 0 4 6 12 24 8 0 1 0 0 0 0 0 0 0 0 0 0 0 0 0 0 1 5 8 3 10 7 3 11 12 10 7 4 3 1 0 0
92 278 254 391 440 214 150 162 96 52 22 0 0 0 0 0 1 6 25 33 6 0 0 0 0 0 0 0 0 0 0 0 1 0 0 3 8 6 11 9 10 2 9 1 0 12 9 8 8 6 2 2 2 0
270 337 336 439 375 245 288 196 185 129 30 0 0 0 0 6 19 24 12 1 0 0 0 0 0 0 0 0 0 1 0 0 0 1 3 6 11 5 7 10 15 21 25 22 1 0 0 5 2 3 5 3 3 4
392 246 403 439 400 290 378 200 187 11 0 0 0 0 2 0 1 0 0 1 0 0 0 0 0 6 9 16 16 9 0 0 1 1 5 6 9 13 4 6 12 17 23 20 24 19 5 9 8 10 9 7 5 5
350 320 417 455 479 507 96 0 0 0 0 0 0 2 0 0 0 8 5 1 0 0 0 0 5 20 12 4 0 0 0 0 0 0 0 2 6 6 7 19 19 20 19 16 17 17 15 7 9 7 9 11 12 11
445 523 421 307 396 23 0 8 1 15 6 16 8 6 20 3 3 1 0 8 23 17 0 6 19 10 0 0 0 0 0 0 0 0 0 0 0 1 5 12 9 11 13 12 11 8 7 14 20 8 12 14 18 12
460 387 375 351 138 50 14 72 168 258 155 219 155 15 0 0 0 2 3 12 19 7 2 1 0 0 0 0 0 0 0 0 0 0 0 0 0 0 0 7 9 9 10 16 24 19 7 6 9 8 13 11 15 10
CIN
0 0 0 0 0 -1 -1 -1 -2 -2 -1 0 0 0 0 0 0 -1 -3 0 0 0 0 0 -1 -1 -1 -1 -2 -1 0 -1 0 -6 -6 -4 -6 -15 -3 -7 -1 0 0 0 0 0 0 0 0 0 0 0 0 0
0 0 0 0 0 -1 -1 -2 -2 -2 0 0 0 0 0 0 0 0 0 0 0 0 0 -2 -1 -2 -1 0 -1 0 0 -1 0 -2 0 -25 -12 -39 -10 -6 0 0 0 -28 0 -4 0 0 0 0 0 0 0 0
0 0 0 0 0 -1 -1 -1 -2 -2 0 0 0 0 0 -1 -1 0 0 0 0 0 0 -2 0 0 0 0 0 0 -1 0 -2 0 0 0 -2 0 -13 0 0 0 0 0 0 0 0 0 0 0 0 0 0 0
0 0 0 0 0 -1 0 -2 -1 -2 -1 0 0 0 -1 -1 0 0 0 0 0 0 0 -2 -1 -1 0 0 0 0 0 0 0 0 -1 0 0 0 0 0 0 0 0 -2 0 0 0 0 0 0 0 0 0 0
0 0 0 0 0 0 0 0 0 -1 -1 0 -1 -6 0 0 0 -2 0 0 0 0 0 0 0 0 -1 0 0 0 0 -1 -1 -1 0 0 0 0 0 0 0 0 0 0 -1 0 0 0 0 0 0 0 0 0
0 0 0 0 0 0 0 0 0 -1 -1 0 -3 0 0 0 -4 -4 0 -7 0 0 0 -1 -2 0 0 -4 0 0 0 0 0 0 0 0 0 0 0 0 0 0 0 0 0 0 0 0 0 0 0 0 0 0
0 0 0 0 0 0 -1 -1 0 -1 -2 -2 -3 0 0 0 -1 -3 0 -3 -1 0 0 0 -1 0 0 -1 -1 0 0 0 0 0 0 0 0 0 0 0 0 0 0 0 0 0 0 0 0 0 0 0 0 0
0 0 0 0 0 0 0 0 0 -1 -1 -1 0 0 0 0 0 -2 -4 0 0 -1 0 0 -1 -1 0 0 -2 -1 -1 0 0 0 0 0 0 0 0 0 0 0 0 0 0 0 0 0 0 0 0 0 0 0
0 0 0 0 0 0 0 0 0 0 0 0 0 0 0 -1 0 0 -2 0 0 0 0 0 0 0 0 0 0 0 -1 0 0 0 0 0 0 0 0 -1 -1 -1 -1 0 0 0 0 0 0 0 0 0 0 0
0 0 0 0 0 0 0 0 0 0 0 0 0 0 0 0 0 0 0 0 0 0 0 0 0 0 0 0 0 0 0 0 0 0 0 0 0 0 0 0 -1 -1 -1 -1 -2 0 0 0 0 0 0 0 0 0
0 0 0 0 0 0 0 0 0 0 0 0 0 0 0 0 0 0 0 0 0 0 0 0 0 0 0 0 0 0 0 0 0 0 0 0 0 0 0 0 0 0 0 -1 -1 -1 -1 -2 0 0 0 0 0 0
0 0 0 0 0 0 0 0 0 0 -1 0 0 0 0 0 0 0 0 0 0 0 0 0 0 0 0 0 0 0 0 0 0 0 0 0 0 -1 0 0 0 0 0 0 0 0 -1 -1 -1 0 0 0 0 0
0 0 0 0 0 0 0 0 0 0 0 0 0 0 0 0 0 0 -5 -1 0 0 0 0 0 0 0 0 0 -1 0 0 0 -2 0 -2 0 0 0 0 0 0 0 0 0 0 -1 0 -1 0 0 0 0 0
0 0 0 0 0 0 0 0 0 0 0 -3 -38 0 -1 0 -1 0 0 -1 -3 0 0 0 0 0 0 0 0 0 0 0 0 -2 -2 0 0 -1 -1 -1 0 0 0 0 0 0 0 0 -1 -1 -1 0 0 0
0 0 0 0 0 0 0 0 0 0 0 -15 -16 0 -1 0 0 0 0 -1 -1 0 0 0 0 0 0 0 0 0 0 0 0 0 0 -1 0 0 0 0 0 0 0 0 0 0 -2 -2 -1 -1 -1 0 0 0
0 0 0 0 0 0 0 0 0 0 -63 -11 -3 -1 -1 -1 0 0 0 -1 0 -1 0 0 -12 -3 -1 -2 0 -3 0 0 0 -1 -2 0 0 0 0 0 0 0 0 0 0 0 0 -11 0 -1 -1 0 0 0
0 0 0 0 0 0 0 0 0 -35 -14 -4 -1 -4 -9 -1 -1 0 0 0 0 -9 -1 -1 0 0 0 -1 0 0 0 0 0 -2 -3 0 0 0 0 0 0 0 0 0 0 0 0 0 -4 0 0 -1 0 0
0 0 0 0 0 0 0 -5 -31 -5 -13 -30 -12 0 0 0 -1 0 0 0 0 -1 -2 -1 -1 -1 -2 -1 0 -1 0 -2 -2 -2 -2 0 0 0 0 0 0 0 0 0 0 0 0 0 0 -6 0 0 -1 -1
0 0 0 0 0 0 -31 -32 -41 -3 -1 -6 -5 0 0 -3 0 0 0 0 0 0 0 -1 -1 -1 -1 -1 -1 -1 -1 -2 -2 -3 -2 -1 0 0 0 0 0 0 0 0 0 0 0 0 0 -1 0 0 0 0
0 0 0 0 0 -57 -15 -22 -51 -8 -6 -31 0 0 0 0 -2 0 0 0 0 0 -1 -1 0 -1 -1 -1 -1 -1 -2 0 -1 0 0 0 0 0 0 0 0 0 0 -1 -2 0 0 0 0 0 0 0 0 0
0 0 0 0 -100 -76 -43 -32 -25 -2 -9 -18 -1 0 0 -1 -1 -1 -1 -1 0 -1 0 -1 -1 -2 0 0 0 0 0 0 0 0 0 0 0 0 0 0 0 0 0 0 -1 0 0 0 0 0 0 0 0 0
0 0 -111 -141 -41 -57 -42 -81 -15 -8 -1 -1 -1 -2 0 0 0 0 -1 -1 -1 0 -2 -2 -2 0 0 0 0 0 0 0 0 0 0 0 0 0 0 0 0 0 0 0 -1 -1 0 0 0 0 0 0 0 0
0 -57 -52 -83 -24 -40 -31 -66 -5 -4 -2 -5 -22 -1 -2 0 0 -3 -1 0 -1 0 -2 -3 -15 0 0 0 0 0 0 0 0 0 0 0 0 0 0 0 0 0 0 0 -3 -3 -2 0 0 0 0 0 0 0
0 -16 -16 0 0 -14 -30 -10 -23 -3 -1 0 -2 -1 -1 -3 -7 0 0 0 0 -1 0 -8 -1 -2 -2 0 0 0 0 0 0 0 0 0 0 0 0 0 0 0 0 -1 -3 -3 -3 -2 0 0 0 0 0 0
0 0 0 0 -41 -11 -4 -3 -14 -1 -4 0 -1 -4 -5 -1 -1 0 -1 -1 0 -1 0 -1 0 0 0 0 0 0 0 0 0 0 0 0 0 0 0 0 -3 -2 -3 -1 -1 -4 -2 -3 -3 -4 0 0 0 0
0 0 -13 -12 -23 -9 -14 -4 -6 -6 -15 -16 -10 -36 0 0 -1 0 0 -1 -1 0 0 -1 -1 -1 -1 0 0 0 0 0 0 0 0 0 0 0 -1 -2 -2 -3 -4 -5 -4 -3 -3 -4 -3 -2 0 0 0 0
0 -16 -39 -87 -40 -34 -15 -25 -34 -17 0 0 -35 0 0 0 0 0 -1 -1 -1 -2 0 -1 0 0 0 0 0 0 0 -2 0 0 0 -1 -2 -1 -3 -2 -2 -3 -4 -3 -4 -5 -2 -4 -3 -3 -2 -2 0 0
-32 -29 -9 -21 -29 -42 -18 -15 -17 -14 -21 0 0 0 0 0 0 -2 0 -1 -9 0 0 0 0 0 0 0 0 -2 0 0 -4 0 -2 -4 -2 -3 -3 -4 -4 -3 -3 -1 -1 -4 -3 -4 -2 -3 -3 -3 -4 -2
-31 -35 -44 -21 -34 -36 -22 -12 -10 -28 -68 0 0 0 0 -2 -1 -1 -6 -1 0 0 0 0 0 0 0 0 -1 -3 0 0 0 -2 -2 -3 -2 -4 -5 -4 -3 -2 -3 -5 -1 -2 0 -2 -5 -5 -4 -5 -4 -4
-23 -57 -25 -27 -24 -14 -26 -66 -55 -161 0 0 0 0 -1 0 -1 0 -1 -6 0 0 0 -1 0 -2 -3 -2 -3 -3 -5 -1 -3 -3 -2 -3 -3 -4 -4 -4 -4 -3 -4 -3 -4 -6 -7 -5 -6 -6 -5 -5 -5 -7
-84 -68 -38 -32 -19 -73 -156 0 0 0 0 0 0 -1 0 0 0 -2 -7 -6 0 0 0 0 -2 -3 -2 -2 0 0 -1 0 0 -1 -1 -4 -4 -5 -4 -2 -3 -4 -4 -6 -5 -5 -5 -6 -6 -6 -5 -4 -3 -2
-66 -39 -24 -16 -15 -209 0 -171 -150 -109 -96 -63 -70 -41 -1 0 0 0 0 -4 -2 -2 0 -5 -2 -2 -4 0 0 0 0 0 0 0 0 0 -2 -3 -4 -3 -2 -4 -4 -6 -4 -6 -4 -2 -2 -3 -3 -1 -1 -2
-35 -34 -38 -31 -56 -99 -136 -92 -51 -25 -31 -6 -1 -22 -2 0 0 0 -1 -18 -8 -3 -2 -4 0 0 0 0 0 0 0 0 0 0 0 0 0 0 0 -4 -3 -3 -3 -3 -3 -2 -3 -2 -2 -3 -2 -3 -2 -2
Wind_Speed
20 23 26 24 23 24 24 23 23 21 19 14 14 14 12 12 13 11 11 9 8 9 7 5 6 22 19 16 13 14 14 13 18 22 24 26 27 27 28 25 29 31 33 36 33 40 34 22 20 30 25 25 23 26
19 23 25 23 23 22 24 23 23 22 21 17 15 16 13 14 14 13 12 10 11 9 7 1 5 18 27 24 19 16 15 12 12 19 19 22 23 25 25 31 23 31 25 27 27 26 14 11 13 14 16 20 23 24
18 23 23 23 22 20 22 22 23 21 22 20 17 16 14 15 15 14 14 15 14 10 7 11 17 15 18 20 23 19 12 15 14 14 19 19 22 21 25 23 27 21 20 24 24 19 13 11 12 13 16 17 20 22
14 21 20 22 21 19 20 20 22 22 23 23 19 16 16 18 17 17 16 15 15 14 13 14 13 11 15 18 16 22 21 18 19 17 18 18 20 18 23 23 24 22 22 22 19 18 17 15 15 16 18 18 19 20
13 21 21 23 20 18 19 19 19 21 22 21 20 15 18 20 20 20 19 16 15 15 15 11 10 18 15 16 20 22 21 18 17 16 16 19 18 20 20 21 21 17 20 22 23 18 21 18 20 19 20 21 21 22
12 17 21 23 19 18 16 19 18 19 21 19 18 15 18 21 22 21 23 20 16 15 17 19 16 16 10 10 17 20 20 18 16 16 16 16 16 20 23 24 19 16 16 15 20 21 23 25 23 21 23 23 23 23
12 15 20 20 18 18 15 18 17 18 18 18 18 18 19 22 25 26 26 21 21 19 20 20 20 16 11 11 14 18 19 17 17 16 16 18 19 20 23 22 15 18 20 23 26 28 31 28 29 27 26 25 25 24
18 13 18 17 16 16 15 17 16 15 17 18 20 23 24 24 25 25 24 25 23 22 21 24 20 20 13 17 20 16 20 19 19 16 17 19 21 21 24 21 24 26 29 30 29 28 32 32 31 30 28 27 26 24
20 13 14 14 15 15 15 17 17 17 18 19 20 21 18 20 22 23 25 24 22 23 27 26 28 25 14 19 18 18 18 20 16 17 14 18 18 22 26 32 32 32 33 35 35 36 37 38 37 35 33 30 28 26
27 13 13 16 13 14 15 17 18 17 19 20 18 18 21 20 25 24 22 24 23 22 24 27 23 25 18 21 21 20 18 19 20 17 13 6 14 20 27 33 36 37 37 38 41 41 39 39 40 40 38 35 33 31
29 14 11 14 13 13 15 17 19 19 17 15 18 19 19 20 19 20 23 24 24 25 21 22 23 24 23 24 24 21 20 17 18 16 13 11 3 10 23 30 30 34 38 39 41 43 44 45 45 44 43 40 37 36
28 19 8 11 13 15 15 16 16 17 18 17 18 17 17 16 17 20 22 22 23 25 21 19 21 22 23 22 24 22 20 18 18 11 13 11 7 10 15 21 28 31 32 36 40 46 47 48 47 46 45 44 41 39
31 25 8 8 16 17 15 14 13 18 18 17 17 18 16 18 24 23 24 22 21 20 21 14 16 18 19 21 23 22 25 23 16 14 11 5 7 12 19 17 19 24 32 34 36 39 44 46 46 43 44 43 42 42
32 26 8 13 18 18 14 13 15 16 17 16 17 21 21 20 21 17 12 9 12 14 14 14 16 16 18 17 18 20 20 19 25 24 4 13 19 18 19 22 24 23 29 33 33 34 35 37 40 40 41 40 41 42
31 27 20 21 24 19 16 16 15 15 17 18 18 19 21 20 20 18 15 13 17 15 15 14 16 17 17 19 19 17 18 18 20 18 7 8 12 15 21 25 31 34 30 25 29 30 28 28 32 37 38 39 39 39
28 12 19 25 25 21 18 17 16 17 17 18 19 18 20 20 23 24 24 23 21 17 16 15 17 15 21 19 22 22 19 22 19 14 18 8 13 12 15 15 21 27 33 34 26 24 25 24 25 29 34 37 39 40
10 19 19 23 23 16 15 15 16 16 19 19 21 21 19 20 22 24 25 25 19 16 19 18 21 20 18 21 23 24 21 20 22 26 29 34 35 32 35 35 29 30 29 31 30 25 26 25 25 26 31 35 40 42
17 18 17 19 18 16 15 15 16 17 19 19 20 22 21 20 22 24 25 25 20 20 21 20 20 22 21 22 23 24 25 26 24 30 31 33 35 36 37 36 34 35 37 35 32 32 30 27 27 29 30 31 32 34
6 6 7 11 15 16 16 17 17 18 20 19 19 22 22 18 21 22 24 23 22 22 18 19 20 21 22 25 27 27 27 27 28 30 30 32 35 36 37 37 36 36 36 35 33 35 32 30 25 28 25 24 25 24
10 14 16 17 16 17 18 19 17 20 20 20 21 22 20 20 18 21 22 24 23 20 21 20 21 22 24 25 25 24 26 28 29 31 32 33 34 35 35 35 34 35 34 34 33 33 28 27 27 28 26 23 23 20
16 16 16 16 17 18 19 18 20 20 18 20 19 20 20 20 21 22 23 23 23 22 22 22 23 23 24 25 26 26 28 29 30 31 33 34 34 34 34 34 33 32 32 32 33 32 31 21 22 28 33 24 27 22
17 15 16 17 18 18 19 19 19 19 19 19 18 18 19 19 20 20 21 22 22 22 22 22 23 23 25 27 27 29 30 31 30 31 32 33 33 34 34 34 34 33 32 31 30 29 29 28 28 29 26 25 25 24
16 16 16 17 17 18 18 17 18 18 18 18 18 17 18 18 17 15 19 19 19 20 20 20 20 22 24 24 27 30 32 32 32 32 33 33 33 33 33 32 32 31 31 30 29 27 27 28 28 27 27 25 24 25
16 17 18 19 19 19 17 18 18 19 18 17 17 18 19 18 17 18 19 19 19 19 19 19 19 20 22 26 28 30 32 32 32 32 34 34 34 33 32 31 30 30 30 29 29 27 27 26 26 26 26 25 23 22
18 19 18 21 19 18 18 18 18 18 19 17 17 18 17 16 17 18 19 19 18 19 19 18 20 23 25 26 27 28 31 32 33 33 33 33 33 32 31 30 29 31 30 29 28 27 27 27 27 26 26 26 25 24
18 19 20 20 19 18 19 18 17 17 17 17 17 17 15 16 16 18 18 18 19 19 20 20 19 20 23 26 27 29 30 32 32 31 31 31 31 32 32 32 31 30 31 30 29 28 28 27 27 27 26 26 26 24
18 18 18 18 18 18 19 19 18 17 17 16 16 15 15 15 16 17 16 16 18 20 20 20 21 23 24 25 25 27 28 29 32 30 28 29 30 31 31 31 31 31 30 29 29 29 29 28 28 27 27 26 25 25
17 16 16 17 17 17 18 19 19 18 18 17 16 16 18 18 18 16 16 16 17 19 21 20 21 23 24 25 27 28 29 29 30 31 28 27 28 30 31 30 29 29 28 28 29 27 27 27 27 26 25 24 24 23
15 14 14 14 16 16 17 19 18 19 18 17 17 18 18 20 21 20 21 18 17 20 21 22 22 23 25 25 25 27 29 30 33 33 32 31 31 31 30 30 29 28 28 27 25 26 25 25 25 25 25 24 24 23
15 14 15 15 16 18 19 19 19 18 19 20 19 19 20 22 23 22 20 20 21 22 23 23 23 26 27 27 28 26 26 29 31 31 31 30 28 28 28 29 29 28 28 27 26 26 26 25 24 24 25 24 24 24
14 14 14 15 17 18 18 19 19 20 19 20 20 18 19 19 23 26 23 20 18 22 22 23 24 27 28 28 28 27 27 28 28 28 27 23 25 24 22 21 19 20 21 25 26 25 25 25 25 24 24 24 24 24
15 14 15 17 18 18 17 17 18 19 19 19 20 19 20 21 23 19 16 19 21 25 23 23 25 26 26 25 25 25 24 25 25 23 21 19 19 16 15 18 16 13 9 8 2 10 16 18 19 20 21 22 23 23
16 16 17 17 18 18 16 16 17 19 20 21 22 23 23 22 22 18 16 14 17 19 21 24 24 24 25 25 24 24 23 25 26 29 27 25 22 15 13 13 8 6 5 5 4 3 5 9 12 14 16 19 20 22
Wind_Direction
1 4 6 8 11 14 16 17 17 19 21 25 28 29 33 36 42 57 58 99 99 73 53 101 108 257 246 225 233 265 273 287 258 232 226 223 224 224 226 226 224 224 224 222 231 227 235 266 245 237 247 255 264 261
0 5 8 10 13 16 18 20 21 23 24 27 32 35 41 43 48 60 62 82 116 90 78 154 200 234 248 234 242 257 250 282 288 244 236 232 229 227 227 222 234 227 233 230 235 231 246 265 249 256 272 265 266 269
360 6 9 12 15 18 20 23 24 25 27 31 36 42 50 53 60 65 70 77 89 100 85 85 68 87 289 251 212 242 284 281 286 284 250 242 230 234 226 229 231 235 243 232 238 235 241 261 268 271 280 280 280 278
347 7 9 13 16 19 22 25 27 30 30 32 42 54 61 60 70 69 74 93 89 94 90 91 87 87 233 270 277 237 244 255 261 264 254 244 235 245 233 239 237 242 241 238 231 235 242 260 274 276 282 284 283 281
344 8 11 14 17 20 24 26 28 31 34 39 52 69 68 64 72 73 77 100 101 100 86 99 106 79 95 262 253 239 231 251 259 259 258 245 250 245 245 242 239 247 240 237 236 243 251 257 273 276 282 279 280 280
343 4 11 14 17 21 25 26 30 31 35 46 60 75 78 74 74 80 79 91 112 113 92 87 99 94 105 218 235 220 217 220 226 261 263 257 265 250 239 237 252 259 261 263 247 259 261 266 271 270 279 277 277 281
332 360 11 14 17 22 28 27 31 33 41 53 66 74 92 84 76 73 76 83 97 102 86 84 95 107 101 137 200 206 212 228 237 266 262 260 258 258 243 242 262 269 271 267 265 265 261 264 263 271 274 274 275 279
303 349 10 14 19 25 33 35 38 48 57 67 74 70 81 77 78 73 78 87 89 85 88 78 89 97 112 112 121 166 158 188 210 260 272 268 264 257 245 259 272 275 272 270 266 265 264 267 267 268 271 272 270 273
301 327 7 17 26 32 39 41 47 59 68 79 85 79 85 77 71 75 79 89 91 85 80 79 77 88 112 117 131 126 136 138 159 178 267 280 268 256 274 276 277 277 273 271 269 266 264 261 261 262 264 266 266 269
303 318 9 22 31 40 42 44 48 63 72 81 90 83 70 82 71 71 77 73 84 89 83 79 86 89 108 111 117 122 129 127 123 132 143 189 295 297 295 290 282 277 274 272 268 265 265 262 259 259 259 260 261 263
303 307 8 24 35 45 46 43 42 57 77 81 70 70 74 83 65 69 63 66 76 76 86 84 84 82 91 99 105 116 121 131 121 120 126 128 134 284 299 309 303 290 280 274 271 269 268 263 258 258 256 257 259 261
301 299 342 26 42 45 45 44 50 47 47 57 64 79 80 71 72 61 59 66 63 60 78 91 87 91 91 99 99 105 115 123 115 126 118 102 64 336 319 312 315 313 303 288 281 273 269 263 258 257 256 256 257 259
305 299 303 41 43 38 42 49 62 38 52 48 51 56 74 66 46 42 39 55 58 71 76 105 98 94 94 92 92 94 88 94 117 112 111 54 351 336 330 319 316 310 311 309 294 287 275 265 258 255 255 257 258 258
307 300 280 50 34 30 42 60 67 58 39 42 36 21 34 42 50 75 92 119 100 107 105 99 93 101 89 94 94 92 94 98 74 71 350 325 329 327 323 328 327 319 321 317 311 301 288 269 256 255 256 259 260 259
307 303 29 24 15 31 49 65 77 56 42 31 29 17 14 21 30 45 72 87 65 80 82 79 76 77 78 75 79 88 90 87 77 70 53 341 335 326 323 323 331 335 326 317 316 314 302 282 266 259 258 260 260 261
304 25 28 13 13 36 53 62 58 48 40 32 27 21 11 5 352 352 353 9 27 48 56 58 54 75 53 59 54 51 65 56 59 58 47 34 327 334 329 327 321 328 335 334 319 316 314 301 282 270 265 262 261 261
305 34 31 17 21 49 57 50 51 45 31 21 12 18 10 5 352 345 341 344 14 38 27 31 22 27 39 29 20 24 35 33 25 18 15 7 344 333 338 338 329 330 331 340 337 329 326 319 309 293 277 271 266 263
40 40 38 31 37 53 58 56 46 40 29 27 20 11 2 1 343 343 344 340 2 7 7 21 19 14 22 16 7 10 6 2 13 351 348 347 345 343 344 338 335 337 344 342 341 342 333 323 326 316 296 287 278 268
57 73 74 65 61 57 50 48 46 38 35 39 32 17 10 356 348 331 338 348 356 7 20 19 13 13 9 358 351 354 358 358 356 348 348 349 345 339 340 339 340 341 340 343 341 345 340 341 330 334 323 313 294 288
67 60 55 58 68 51 42 40 48 36 31 30 32 28 29 25 38 20 353 351 4 12 13 15 14 8 2 5 8 7 2 354 350 347 343 343 340 335 337 334 334 337 341 344 347 348 342 346 349 347 343 347 342 321
54 53 56 60 56 50 44 47 43 35 45 42 43 35 35 35 25 27 25 16 20 22 25 29 29 28 23 19 13 6 359 353 349 347 342 337 338 340 338 338 335 336 340 343 348 347 348 337 345 359 10 359 356 343
50 60 61 60 55 59 56 55 55 54 52 51 57 55 44 39 28 42 40 37 40 31 30 26 27 27 22 17 14 7 360 353 354 349 344 338 338 339 340 341 341 341 343 342 345 355 356 348 349 355 350 353 360 1
68 69 70 64 64 61 57 67 54 54 48 51 52 60 55 47 57 65 38 35 33 31 27 28 28 24 21 20 12 4 359 357 357 357 353 349 347 344 340 338 339 339 338 340 341 348 349 350 352 355 0 358 357 1
73 71 63 62 61 57 66 56 57 54 55 59 50 43 38 42 48 35 26 28 26 28 28 28 29 23 19 12 8 7 4 3 1 359 355 351 348 347 346 345 345 343 338 339 338 341 341 344 346 346 345 345 342 343
60 54 64 54 62 60 59 59 57 56 55 60 53 44 44 51 33 27 23 23 27 25 23 26 22 18 13 11 10 9 6 1 358 356 357 357 355 354 352 350 349 347 342 339 336 337 338 339 338 338 338 338 336 336
59 55 53 54 58 59 57 61 64 63 62 62 60 59 61 51 42 32 34 37 36 33 29 28 27 24 19 16 13 10 9 8 3 2 0 359 356 352 348 347 345 344 344 341 337 333 332 332 333 332 331 332 332 331
58 60 58 61 63 61 57 54 57 63 62 63 63 65 62 55 49 41 47 48 41 39 40 36 29 24 20 19 20 17 16 12 8 4 4 1 358 355 349 345 341 337 335 335 332 331 328 326 326 326 327 329 329 329
65 65 59 54 55 55 49 46 48 49 50 52 53 48 40 39 35 46 43 47 46 40 34 36 33 24 19 17 14 15 14 13 12 10 10 10 9 2 356 353 353 344 343 342 334 335 334 334 331 332 329 328 329 331
66 60 56 52 46 45 42 38 39 37 42 45 40 39 41 37 35 35 33 40 41 40 36 30 23 17 14 18 26 21 18 15 10 8 7 6 6 4 3 2 1 356 350 347 352 349 340 336 338 333 332 331 328 329
59 61 54 50 44 39 38 38 33 35 33 32 37 41 41 31 23 33 34 37 37 26 18 24 18 6 11 18 18 22 25 22 20 19 16 16 19 18 16 10 5 1 354 349 343 339 341 337 339 336 335 333 330 326
55 57 54 49 42 40 39 43 47 44 41 36 37 40 39 35 32 32 42 42 32 26 26 24 21 20 17 19 24 29 31 32 32 34 38 43 38 39 44 49 53 51 41 14 355 341 337 335 337 334 336 331 328 324
57 57 48 40 37 42 49 48 47 42 42 44 40 40 36 25 21 34 48 42 21 20 31 32 28 28 33 37 42 48 53 53 54 57 59 64 65 70 72 69 76 83 95 103 197 294 312 319 326 329 329 327 327 326
58 53 47 45 43 43 49 52 48 43 43 41 39 39 33 40 40 57 61 61 44 45 44 40 42 45 46 48 51 54 56 52 53 48 52 57 65 76 82 83 90 97 107 117 125 164 264 282 290 296 301 308 311 315